sat.trackr.live / text

‹ back to catalog

ONEWEB-0630

NORAD 56072 · 2023-043AC

PAYLOAD ACTIVE UNKNOWN

§ Identity

Operator
Country
UK
Launch date
2023-03-26
Launch site
SRILR
Launch vehicle
Mass (kg)
RCS (m²)

Purposes: comms

External: N2YO · Heavens-Above · Gunter

§ Orbital elements

Epoch: 2026-05-25T01:16:03.833760Z

Period
109.46 min
Inclination
87.8987°
Eccentricity
0.0001696
Mean motion
13.15549494 rev/d
Perigee alt
1,200.5 km
Apogee alt
1,203.1 km
Semi-major
7,579.9 km
B*
-4.5041e-4
RAAN
263.8049°
Arg perigee
96.3348°
Mean anomaly
263.7975°
Rev number
15,338

§ Raw data

ONEWEB-06301 56072U 23043AC  26145.05282215 -.00000157  00000+0 -45041-3 0  99962 56072  87.8987 263.8049 0001696  96.3348 263.7975 13.15549494153380

JSON: /api/v1/satellites/56072 · /tle

For live sub-satellite position, see the globe view (requires WebGL).

§ Visibility from observer

Set your observer location to see the next 7 days of passes ≥ 10°. The values pass through the URL so the page stays shareable.

No JS? Fill the form by hand. The geolocation button needs JavaScript.